Torna al catalogo

GEOSAT

AttivoScienzaLEO
NORAD 15595·PAYLOAD·🇺🇸 United States

Lanciato Mar 13, 1985 da Vandenberg Space Force Base

Loading…

Prossimi Passaggi (prossime 24 ore)

TLE

AggiornatoSource: Space-Track

Epoca: Sep 14, 2026, 11:39 UTC

1 15595U 85021A   26257.48580750  .00000051  00000-0  59200-4 0  9996
2 15595 108.0470 267.2925 0002559 272.5114  87.5735 14.40003759175622

Traccia GEOSAT in tempo reale con AllMySat

Download on the App Store